{"data":{"norad_id":28054,"intl_designator":"2003-048A","name":"DMSP 5D-3 F16 (USA 172)","alt_names":[],"object_type":"PAYLOAD","status":"ACTIVE","operator":null,"country":"US","launch_date":"2003-10-18","launch_site_code":"AFWTR","launch_vehicle":null,"mission":null,"orbit_class":"UNKNOWN","rcs_meters":4.3007,"size_class":null,"mass_kg":null,"dimensions":null,"purposes":["earth_obs"],"wikipedia_slug":null,"has_3d_model":false,"image_url":null,"decayed_at":null,"tle_current":{"epoch":"2026-05-25T04:09:23.500224Z","epoch_age_seconds":63229,"freshness":"FRESH","line1":"1 28054U 03048A   26145.17318866  .00000005  00000+0  26475-4 0  9994","line2":"2 28054  98.9901 168.8481 0006534 203.7987 207.0186 14.14480137166232","mean_motion":14.14480137,"eccentricity":0.0006534,"inclination_deg":98.9901,"raan_deg":168.8481,"arg_perigee_deg":203.7987,"mean_anomaly_deg":207.0186,"bstar":2.6475e-5,"rev_number":16623,"period_min":101.80418673493,"perigee_km":839.36221123123,"apogee_km":848.80020598624,"semimajor_km":7222.2182086087,"source":"CELESTRAK","updated_at":"2026-05-25T13:38:11.909767Z"}}}